Location: Bluff Heights
(33.7692°N, 118.1592°W)
Time: 13:09:25
(UTC+00:00)

X-37B - Visible Passes

Search period start: 02 December 2022 00:00
Search period end: 12 December 2022 00:00
Orbit: 277 x 277 km, 45.0° (Epoch: 01 November)

Date Brightness Start Highest point End Pass type
(mag) Time Alt. Az. Time Alt. Az. Time Alt. Az.
04 Dec 2.9 02:28:51 10° SSW 02:29:24 15° SSW 02:29:24 15° SSW visible
05 Dec 2.5 02:29:21 10° WSW 02:30:23 22° WSW 02:30:23 22° WSW visible
06 Dec 2.6 02:30:12 10° W 02:31:18 21° W 02:31:18 21° W visible
07 Dec 2.9 02:31:20 10° WNW 02:32:08 15° WNW 02:32:08 15° WNW visible
08 Dec 3.3 02:32:48 10° NW 02:32:54 10° NW 02:32:54 10° NW visible
